Statesboro, GA

8:59 AM EDT on September 25, 2016 (GMT -0400)
Statesboro-Bulloch County

Weather History for KTBR - November, 2011

Change the Weather History Date:

Wednesday, November 9, 2011

  Actual Average (KSAV) Record (KSAV)
Temperature  
Mean Temperature 58 °F 61 °F  
Max Temperature 75 °F 73 °F 86 °F (1986)
Min Temperature 42 °F 50 °F 26 °F (1976)
Degree Days  
Heating Degree Days 6 6  
Month to date heating degree days 42  
Since 1 July heating degree days 99  
Cooling Degree Days 0 2  
Month to date cooling degree days 18  
Year to date cooling degree days 2430  
Growing Degree Days 8 (Base 50)    
Moisture  
Dew Point 48 °F    
Average Humidity 75    
Maximum Humidity 100    
Minimum Humidity 38    
Precipitation  
Precipitation 0.00 in 0.09 in 2.10 in (1990)
Month to date precipitation 0.71  
Year to date precipitation 43.35  
Sea Level Pressure  
Sea Level Pressure 30.09 in    
Wind  
Wind Speed 1 mph (NE)    
Max Wind Speed 8 mph    
Max Gust Speed -    
Visibility 10 miles    
Events      
T = Trace of Precipitation, MM = Missing Value Source: NWS Daily Summary

Daily Weather History Graph

Daily Weather History Graph

Search for Another Location

Airport or City:

Trip Planner

Search our weather history database for the weather conditions in past years. The results will help you decide how hot, cold, wet, or windy it might be!

Date:

Astronomy

Nov. 09, 2011 Rise Set
Actual Time 6:50 AM EST 5:30 PM EST
Civil Twilight 6:25 AM EST 5:55 PM EST
Nautical Twilight 5:55 AM EST 6:25 PM EST
Astronomical Twilight 5:26 AM EST 6:54 PM EST
Moon 4:41 PM EST (11/9) 5:45 AM EST (11/9)
Length of Visible Light 11h 30m
Length of Day
10h 39m
Waxing Gibbous, 99% of the Moon is Illuminated
Nov 9
Waxing Gibbous
Nov 10
Full
Nov 18
Last Quarter
Nov 25
New
Dec 2
First Quarter

Hourly Weather History & Observations

Time (EST) Temp. Dew Point Humidity Pressure Visibility Wind Dir Wind Speed Gust Speed Precip Events Conditions
12:15 AM 48.2 °F 48.2 °F 100% 30.14 in 7.0 mi Calm Calm - N/A   Clear
12:35 AM 50.0 °F 50.0 °F 100% 30.13 in 10.0 mi Calm Calm - N/A   Clear
12:55 AM 48.2 °F 48.2 °F 100% 30.13 in 10.0 mi Calm Calm - N/A   Clear
1:15 AM 46.4 °F 46.4 °F 100% 30.13 in 5.0 mi Calm Calm - N/A   Clear
1:35 AM 46.4 °F 46.4 °F 100% 30.13 in 10.0 mi Calm Calm - N/A   Clear
2:15 AM 46.4 °F 46.4 °F 100% 30.12 in 10.0 mi Calm Calm - N/A   Clear
2:35 AM 46.4 °F 46.4 °F 100% 30.12 in 7.0 mi Calm Calm - N/A   Clear
2:55 AM 44.6 °F 44.6 °F 100% 30.12 in 7.0 mi Calm Calm - N/A   Scattered Clouds
3:15 AM 46.4 °F 46.4 °F 100% 30.12 in 10.0 mi Calm Calm - N/A   Scattered Clouds
3:35 AM 44.6 °F 44.6 °F 100% 30.12 in 3.0 mi Calm Calm - N/A   Scattered Clouds
3:55 AM 44.6 °F 44.6 °F 100% 30.12 in 10.0 mi Calm Calm - N/A   Scattered Clouds
4:15 AM 44.6 °F 44.6 °F 100% 30.12 in 10.0 mi Calm Calm - N/A   Scattered Clouds
4:35 AM 44.6 °F 44.6 °F 100% 30.12 in 10.0 mi Calm Calm - N/A   Scattered Clouds
4:55 AM 44.6 °F 44.6 °F 100% 30.12 in 10.0 mi Calm Calm - N/A   Scattered Clouds
5:15 AM 44.6 °F 44.6 °F 100% 30.12 in 10.0 mi Calm Calm - N/A   Clear
5:35 AM 42.8 °F 42.8 °F 100% 30.13 in 10.0 mi Calm Calm - N/A   Scattered Clouds
5:55 AM 42.8 °F 42.8 °F 100% 30.13 in 10.0 mi Calm Calm - N/A   Clear
6:15 AM 42.8 °F 42.8 °F 100% 30.13 in 10.0 mi Calm Calm - N/A   Clear
6:35 AM 42.8 °F 42.8 °F 100% 30.14 in 10.0 mi Calm Calm - N/A   Scattered Clouds
6:55 AM 42.8 °F 42.8 °F 100% 30.14 in 7.0 mi Calm Calm - N/A   Scattered Clouds
7:15 AM 42.8 °F 42.8 °F 100% 30.14 in 10.0 mi Calm Calm - N/A   Scattered Clouds
7:35 AM 44.6 °F 44.6 °F 100% 30.15 in 10.0 mi Calm Calm - N/A   Scattered Clouds
7:55 AM 46.4 °F 46.4 °F 100% 30.15 in 10.0 mi Calm Calm - N/A   Scattered Clouds
8:15 AM 51.8 °F 51.8 °F 100% 30.16 in 7.0 mi Calm Calm - N/A   Clear
8:35 AM 55.4 °F 55.4 °F 100% 30.16 in 10.0 mi NNW 3.5 mph - N/A   Clear
9:15 AM 59.0 °F 55.4 °F 88% 30.16 in 10.0 mi North 3.5 mph - N/A   Clear
9:35 AM 60.8 °F 53.6 °F 77% 30.15 in 10.0 mi NE 5.8 mph - N/A   Clear
9:55 AM 62.6 °F 53.6 °F 72% 30.15 in 10.0 mi NNE 4.6 mph - N/A   Clear
10:15 AM 64.4 °F 51.8 °F 64% 30.15 in 10.0 mi ENE 4.6 mph - N/A   Clear
10:35 AM 66.2 °F 51.8 °F 60% 30.14 in 10.0 mi East 3.5 mph - N/A   Clear
10:55 AM 68.0 °F 53.6 °F 60% 30.13 in 10.0 mi East 4.6 mph - N/A   Clear
11:15 AM 69.8 °F 51.8 °F 53% 30.12 in 10.0 mi NE 5.8 mph - N/A   Clear
11:35 AM 69.8 °F 51.8 °F 53% 30.11 in 10.0 mi ENE 4.6 mph - N/A   Clear
11:55 AM 71.6 °F 51.8 °F 50% 30.10 in 10.0 mi NE 4.6 mph - N/A   Clear
12:15 PM 71.6 °F 51.8 °F 50% 30.08 in 10.0 mi Calm Calm - N/A   Clear
12:35 PM 73.4 °F 50.0 °F 44% 30.07 in 10.0 mi ENE 6.9 mph - N/A   Clear
12:55 PM 73.4 °F 50.0 °F 44% 30.06 in 10.0 mi North 8.1 mph - N/A   Clear
1:15 PM 73.4 °F 50.0 °F 44% 30.05 in 10.0 mi NNE 5.8 mph - N/A   Clear
1:35 PM 73.4 °F 50.0 °F 44% 30.04 in 10.0 mi NE 4.6 mph - N/A   Clear
1:55 PM 73.4 °F 50.0 °F 44% 30.03 in 10.0 mi ENE 5.8 mph - N/A   Clear
2:15 PM 75.2 °F 48.2 °F 38% 30.02 in 10.0 mi ENE 5.8 mph - N/A   Clear
2:35 PM 73.4 °F 46.4 °F 38% 30.02 in 10.0 mi ENE 4.6 mph - N/A   Clear
2:55 PM 73.4 °F 48.2 °F 41% 30.00 in 10.0 mi NNE 4.6 mph - N/A   Clear
3:15 PM 73.4 °F 46.4 °F 38% 30.00 in 10.0 mi NNE 3.5 mph - N/A   Clear
3:35 PM 73.4 °F 48.2 °F 41% 29.99 in 10.0 mi ENE 3.5 mph - N/A   Clear
3:55 PM 73.4 °F 46.4 °F 38% 29.98 in 10.0 mi ENE 3.5 mph - N/A   Clear
4:15 PM 73.4 °F 48.2 °F 41% 30.00 in 10.0 mi Calm Calm - N/A   Clear
4:35 PM 71.6 °F 48.2 °F 43% 29.99 in 10.0 mi Calm Calm - N/A   Clear
4:55 PM 69.8 °F 50.0 °F 49% 30.00 in 10.0 mi Calm Calm - N/A   Clear
5:15 PM 66.2 °F 51.8 °F 60% 30.00 in 10.0 mi Calm Calm - N/A   Clear
5:35 PM 64.4 °F 51.8 °F 64% 30.00 in 10.0 mi Calm Calm - N/A   Clear
5:55 PM 62.6 °F 51.8 °F 68% 30.00 in 10.0 mi Calm Calm - N/A   Clear
6:15 PM 60.8 °F 51.8 °F 72% 30.00 in 10.0 mi Calm Calm - N/A   Clear
6:35 PM 59.0 °F 50.0 °F 72% 30.00 in 10.0 mi Calm Calm - N/A   Clear
6:55 PM 59.0 °F 51.8 °F 77% 30.00 in 10.0 mi Calm Calm - N/A   Clear
7:15 PM 55.4 °F 51.8 °F 88% 30.00 in 10.0 mi Calm Calm - N/A   Clear
7:35 PM 55.4 °F 50.0 °F 82% 30.01 in 10.0 mi Calm Calm - N/A   Clear
7:55 PM 53.6 °F 50.0 °F 88% 30.00 in 10.0 mi Calm Calm - N/A   Clear
8:15 PM 53.6 °F 50.0 °F 88% 30.00 in 10.0 mi Calm Calm - N/A   Clear
8:35 PM 53.6 °F 50.0 °F 88% 29.99 in 10.0 mi Calm Calm - N/A   Clear
9:15 PM 50.0 °F 50.0 °F 100% 30.00 in 10.0 mi Calm Calm - N/A   Clear
9:35 PM 50.0 °F 50.0 °F 100% 29.99 in 10.0 mi Calm Calm - N/A   Clear
10:15 PM 48.2 °F 48.2 °F 100% 29.99 in 10.0 mi Calm Calm - N/A   Clear
10:35 PM 48.2 °F 48.2 °F 100% 29.99 in 10.0 mi Calm Calm - N/A   Clear
10:55 PM 48.2 °F 48.2 °F 100% 29.99 in 10.0 mi Calm Calm - N/A   Clear
11:15 PM 48.2 °F 48.2 °F 100% 29.99 in 10.0 mi Calm Calm - N/A   Clear
11:35 PM 46.4 °F 46.4 °F 100% 29.99 in 10.0 mi Calm Calm - N/A   Clear
11:55 PM 46.4 °F 46.4 °F 100% 29.99 in 10.0 mi Calm Calm - N/A   Clear